Location: Mary A Oil Field
(38.5606°N, 98.9545°W)
Time: 05:35:52
(UTC+00:00)

COSMOS 2428 - Pass Details

Date: 20 January 2020
Orbit: 844 x 858 km, 70.9° (Epoch: 26 February)

Event Time Altitude Azimuth Distance (km) Brightness Sun altitude
Rises 00:10:20 0° 341° (NNW) 3,437 5.9 -5.8°
Reaches altitude 10° 00:12:51 10° 345° (NNW) 2,498 5.1 -6.2°
Maximum altitude 00:18:30 57° 64° (ENE) 1,006 2.8 -7.3°
Drops below altitude 10° 00:24:07 10° 143° (SE) 2,481 5.0 -8.3°
Sets 00:26:36 0° 147° (SSE) 3,413 5.7 -8.8°
